EK2202 LPPT-OMDB

Flight info

Callsign EK2202
Flight time 7h 19m
Altitude 36000
Route ORVED DCT RODAP DCT RAKOD DCT UREDI DCT NVS/N0481F370 DCT NANDO/N0480F380 T257 RETBA/N0484F370 DCT MOPIR DCT LASPO DCT LUXUR UM134 ANB UG6 DIMAO UL874 OMENI DCT SUDIK/N0483F390 DCT BONAR M980 LOSUL M855 MMA P751 DASUM Y234 FYM M872 BDB Y214 NAGUB/N0486F410 Y214 RAPMA DCT KUVSO DCT KATIT DCT PEKEM M628 RIGIL G783 ELUDA/N0505F350 G783 ASPED Q308 KIPOK Q568 IMPED
Aircraft A359/H-SDE2E3GHIJ3J4J5LM1ORWXY/LB1D1

Departure

Time 2026-04-26 04:56
Airport Lisbon Humberto Delgado Airport (LPPT)

Arrival

Time 2026-04-26 12:15
Airport Dubai International Airport (OMDB)
Time Latitude Longitude Altitude Speed Heading
2026-04-26 04:23 38.77674 -9.13222 341 ft 0 kts 121°
2026-04-26 04:24 38.77674 -9.13221 341 ft 0 kts 121°
2026-04-26 04:31 38.77674 -9.13220 340 ft 0 kts 121°
2026-04-26 04:35 38.77673 -9.13220 340 ft 0 kts 121°
2026-04-26 04:38 38.77673 -9.13219 340 ft 0 kts 121°
2026-04-26 04:44 38.77678 -9.13230 341 ft 2 kts 120°
2026-04-26 04:44 38.77686 -9.13246 341 ft 2 kts 120°
2026-04-26 04:44 38.77694 -9.13263 342 ft 2 kts 120°
2026-04-26 04:44 38.77701 -9.13279 342 ft 2 kts 120°
2026-04-26 04:45 38.77705 -9.13289 343 ft 0 kts 120°
2026-04-26 04:45 38.77707 -9.13291 343 ft 1 kts 120°
2026-04-26 04:45 38.77714 -9.13307 343 ft 2 kts 120°
2026-04-26 04:45 38.77721 -9.13323 343 ft 2 kts 120°
2026-04-26 04:46 38.77730 -9.13338 343 ft 1 kts 154°
2026-04-26 04:46 38.77737 -9.13341 344 ft 1 kts 170°
2026-04-26 04:46 38.77738 -9.13341 344 ft 0 kts 170°
2026-04-26 04:47 38.77735 -9.13340 343 ft 1 kts 169°
2026-04-26 04:48 38.77682 -9.13327 343 ft 6 kts 170°
2026-04-26 04:48 38.77644 -9.13350 343 ft 6 kts 242°
2026-04-26 04:48 38.77629 -9.13377 343 ft 3 kts 224°
2026-04-26 04:49 38.77617 -9.13392 344 ft 2 kts 224°
2026-04-26 04:49 38.77599 -9.13410 344 ft 5 kts 217°
2026-04-26 04:49 38.77541 -9.13450 344 ft 13 kts 208°
2026-04-26 04:49 38.77455 -9.13521 345 ft 14 kts 202°
2026-04-26 04:50 38.77350 -9.13515 344 ft 15 kts 175°
2026-04-26 04:50 38.77291 -9.13568 344 ft 9 kts 253°
2026-04-26 04:50 38.77275 -9.13643 346 ft 7 kts 256°
2026-04-26 04:50 38.77264 -9.13705 348 ft 6 kts 258°
2026-04-26 04:51 38.77255 -9.13759 349 ft 5 kts 260°
2026-04-26 04:51 38.77247 -9.13807 350 ft 4 kts 243°
2026-04-26 04:51 38.77222 -9.13843 350 ft 7 kts 219°
2026-04-26 04:51 38.77144 -9.13896 350 ft 14 kts 201°
2026-04-26 04:52 38.77047 -9.13946 349 ft 15 kts 202°
2026-04-26 04:52 38.76940 -9.14002 349 ft 17 kts 203°
2026-04-26 04:52 38.76825 -9.14064 348 ft 18 kts 201°
2026-04-26 04:52 38.76707 -9.14125 347 ft 15 kts 202°
2026-04-26 04:53 38.76643 -9.14157 346 ft 3 kts 200°
2026-04-26 04:53 38.76631 -9.14163 346 ft 2 kts 200°
2026-04-26 04:53 38.76606 -9.14174 346 ft 5 kts 197°
2026-04-26 04:53 38.76565 -9.14191 346 ft 7 kts 200°
2026-04-26 04:54 38.76533 -9.14242 346 ft 8 kts 269°
2026-04-26 04:54 38.76547 -9.14325 346 ft 10 kts 290°
2026-04-26 04:54 38.76598 -9.14393 346 ft 11 kts 346°
2026-04-26 04:54 38.76655 -9.14378 346 ft 5 kts 21°
2026-04-26 04:55 38.76839 -9.14286 349 ft 64 kts 22°
2026-04-26 04:55 38.77484 -9.13938 355 ft 134 kts 21°
2026-04-26 04:55 38.78539 -9.13386 377 ft 189 kts 19°
2026-04-26 04:55 38.79847 -9.12754 718 ft 217 kts 20°
2026-04-26 04:56 38.81296 -9.11908 1391 ft 235 kts 31°
2026-04-26 04:56 38.82673 -9.10748 2286 ft 246 kts 34°
2026-04-26 04:56 38.84106 -9.09572 3338 ft 249 kts 33°
2026-04-26 04:56 38.85571 -9.08454 4148 ft 249 kts 32°
2026-04-26 04:57 38.87109 -9.07341 4818 ft 256 kts 31°
2026-04-26 04:57 38.88667 -9.06218 5551 ft 258 kts 36°
2026-04-26 04:57 38.89920 -9.04615 6289 ft 259 kts 57°
2026-04-26 04:57 38.90754 -9.02588 7036 ft 261 kts 64°
2026-04-26 04:58 38.91519 -9.00479 7727 ft 265 kts 65°
2026-04-26 04:58 38.92294 -8.98337 8420 ft 268 kts 64°
2026-04-26 04:58 38.93090 -8.96158 9104 ft 271 kts 64°
2026-04-26 04:58 38.93894 -8.93977 9763 ft 275 kts 64°
2026-04-26 04:59 38.94721 -8.91740 10425 ft 279 kts 64°
2026-04-26 04:59 38.95576 -8.89438 10817 ft 294 kts 64°
2026-04-26 04:59 38.96481 -8.87011 11141 ft 310 kts 64°
2026-04-26 04:59 38.97435 -8.84452 11439 ft 325 kts 64°
2026-04-26 05:00 38.98425 -8.81791 11734 ft 340 kts 64°
2026-04-26 05:00 38.99474 -8.78970 12021 ft 355 kts 64°
2026-04-26 05:00 39.00543 -8.76092 12289 ft 369 kts 64°
2026-04-26 05:00 39.01674 -8.73043 12603 ft 381 kts 64°
2026-04-26 05:01 39.02826 -8.69935 13142 ft 386 kts 64°
2026-04-26 05:01 39.03979 -8.66817 13748 ft 389 kts 64°
2026-04-26 05:01 39.05144 -8.63668 14316 ft 392 kts 64°
2026-04-26 05:01 39.06312 -8.60508 14844 ft 395 kts 64°
2026-04-26 05:02 39.07485 -8.57331 15352 ft 399 kts 64°
2026-04-26 05:02 39.08689 -8.54063 15869 ft 403 kts 64°
2026-04-26 05:02 39.09488 -8.51892 16200 ft 405 kts 64°
2026-04-26 05:02 39.11099 -8.47530 16841 ft 410 kts 64°
2026-04-26 05:03 39.12326 -8.44228 17307 ft 414 kts 64°
2026-04-26 05:03 39.13579 -8.40843 17786 ft 417 kts 64°
2026-04-26 05:03 39.14397 -8.38623 18091 ft 419 kts 64°
2026-04-26 05:03 39.16061 -8.34090 18702 ft 423 kts 65°
2026-04-26 05:04 39.17326 -8.30621 19148 ft 427 kts 65°
2026-04-26 05:04 39.18583 -8.27167 19583 ft 430 kts 65°
2026-04-26 05:04 39.19853 -8.23675 20004 ft 433 kts 65°
2026-04-26 05:04 39.21141 -8.20133 20431 ft 437 kts 65°
2026-04-26 05:05 39.22424 -8.16603 20851 ft 440 kts 65°
2026-04-26 05:05 39.23738 -8.12984 21263 ft 443 kts 65°
2026-04-26 05:05 39.25038 -8.09396 21663 ft 446 kts 65°
2026-04-26 05:05 39.26355 -8.05763 22058 ft 448 kts 65°
2026-04-26 05:06 39.27638 -8.02130 22442 ft 451 kts 67°
2026-04-26 05:06 39.28814 -7.98336 22835 ft 453 kts 69°
2026-04-26 05:06 39.29560 -7.95792 23087 ft 455 kts 69°
2026-04-26 05:06 39.31040 -7.90667 23572 ft 459 kts 70°
2026-04-26 05:07 39.32166 -7.86748 23911 ft 462 kts 70°
2026-04-26 05:07 39.33270 -7.82903 24252 ft 465 kts 70°
2026-04-26 05:07 39.34407 -7.78938 24611 ft 467 kts 69°
2026-04-26 05:07 39.35542 -7.74978 24948 ft 469 kts 69°
2026-04-26 05:08 39.36677 -7.71021 25275 ft 471 kts 69°
2026-04-26 05:08 39.37880 -7.67132 25587 ft 473 kts 66°
2026-04-26 05:08 39.39258 -7.63262 25914 ft 474 kts 63°
2026-04-26 05:08 39.40786 -7.59491 26218 ft 476 kts 60°
2026-04-26 05:09 39.42370 -7.55770 26497 ft 478 kts 60°
2026-04-26 05:09 39.43983 -7.52008 26778 ft 479 kts 60°
2026-04-26 05:09 39.45613 -7.48208 27060 ft 481 kts 60°
2026-04-26 05:09 39.47224 -7.44442 27333 ft 482 kts 60°
2026-04-26 05:10 39.48861 -7.40606 27600 ft 484 kts 60°
2026-04-26 05:10 39.50479 -7.36802 27833 ft 486 kts 60°
2026-04-26 05:10 39.52112 -7.32956 28130 ft 486 kts 60°
2026-04-26 05:10 39.53730 -7.29124 28518 ft 484 kts 60°
2026-04-26 05:11 39.55332 -7.25325 28922 ft 482 kts 60°
2026-04-26 05:11 39.56941 -7.21507 29343 ft 480 kts 60°
2026-04-26 05:11 39.58525 -7.17754 29720 ft 478 kts 60°
2026-04-26 05:11 39.60111 -7.13992 30071 ft 477 kts 60°
2026-04-26 05:12 39.61705 -7.10212 30413 ft 476 kts 60°
2026-04-26 05:12 39.63235 -7.06424 30742 ft 475 kts 62°
2026-04-26 05:12 39.64639 -7.02513 31078 ft 475 kts 64°
2026-04-26 05:12 39.65986 -6.98594 31407 ft 474 kts 64°
2026-04-26 05:13 39.67302 -6.94729 31708 ft 473 kts 65°
2026-04-26 05:13 39.68629 -6.90818 32003 ft 472 kts 64°
2026-04-26 05:13 39.69952 -6.86917 32299 ft 472 kts 64°
2026-04-26 05:13 39.71262 -6.83052 32587 ft 471 kts 64°
2026-04-26 05:14 39.72580 -6.79162 32899 ft 469 kts 64°
2026-04-26 05:14 39.73901 -6.75259 33185 ft 468 kts 64°
2026-04-26 05:14 39.75207 -6.71399 33445 ft 468 kts 64°
2026-04-26 05:14 39.76501 -6.67566 33694 ft 467 kts 64°
2026-04-26 05:15 39.77803 -6.63705 33943 ft 466 kts 64°
2026-04-26 05:15 39.79112 -6.59822 34175 ft 465 kts 64°
2026-04-26 05:15 39.80404 -6.55982 34401 ft 465 kts 64°
2026-04-26 05:15 39.81704 -6.52109 34546 ft 465 kts 64°
2026-04-26 05:16 39.82987 -6.48281 34674 ft 466 kts 64°
2026-04-26 05:16 39.84288 -6.44398 34798 ft 467 kts 64°
2026-04-26 05:16 39.85560 -6.40474 34933 ft 468 kts 66°
2026-04-26 05:16 39.86684 -6.36476 35076 ft 468 kts 69°
2026-04-26 05:17 39.87693 -6.32463 35219 ft 469 kts 70°
2026-04-26 05:17 39.88701 -6.28368 35373 ft 468 kts 70°
2026-04-26 05:17 39.89686 -6.24352 35492 ft 469 kts 70°
2026-04-26 05:17 39.90673 -6.20322 35588 ft 470 kts 70°
2026-04-26 05:18 39.91675 -6.16235 35690 ft 470 kts 70°
2026-04-26 05:18 39.92655 -6.12239 35796 ft 470 kts 70°
2026-04-26 05:18 39.94648 -6.04099 36001 ft 471 kts 70°
2026-04-26 05:19 39.96635 -5.95963 36073 ft 471 kts 70°
2026-04-26 05:19 39.98609 -5.87859 36077 ft 471 kts 70°
2026-04-26 05:20 40.00584 -5.79728 36068 ft 471 kts 70°
2026-04-26 05:20 40.02547 -5.71615 36075 ft 471 kts 70°
2026-04-26 05:21 40.04517 -5.63441 36083 ft 472 kts 70°
2026-04-26 05:21 40.06475 -5.55289 36090 ft 472 kts 70°
2026-04-26 05:22 40.08426 -5.47135 36084 ft 473 kts 70°
2026-04-26 05:22 40.10386 -5.38924 36096 ft 473 kts 70°
2026-04-26 05:23 40.12355 -5.30747 36117 ft 473 kts 71°
2026-04-26 05:23 40.14318 -5.22508 36128 ft 474 kts 71°
2026-04-26 05:24 40.16259 -5.14297 36125 ft 474 kts 71°
2026-04-26 05:24 40.18190 -5.06082 36115 ft 474 kts 71°
2026-04-26 05:25 40.20120 -4.97843 36095 ft 475 kts 71°
2026-04-26 05:25 40.22049 -4.89574 36087 ft 475 kts 71°
2026-04-26 05:26 40.23964 -4.81334 36085 ft 475 kts 71°
2026-04-26 05:26 40.25880 -4.73061 36084 ft 475 kts 71°
2026-04-26 05:27 40.27784 -4.64814 36091 ft 475 kts 71°
2026-04-26 05:27 40.29692 -4.56515 36097 ft 475 kts 72°
2026-04-26 05:28 40.31579 -4.48265 36111 ft 475 kts 72°
2026-04-26 05:28 40.33460 -4.40014 36112 ft 475 kts 72°
2026-04-26 05:29 40.34953 -4.31610 36105 ft 477 kts 80°
2026-04-26 05:29 40.35449 -4.22924 36106 ft 479 kts 89°
2026-04-26 05:30 40.34914 -4.14232 36108 ft 481 kts 98°
2026-04-26 05:30 40.33516 -4.05609 36103 ft 481 kts 102°
2026-04-26 05:31 40.31999 -3.97076 36106 ft 481 kts 102°
2026-04-26 05:31 40.30487 -3.88568 36110 ft 481 kts 102°
2026-04-26 05:32 40.28978 -3.80060 36110 ft 480 kts 102°
2026-04-26 05:32 40.27468 -3.71562 36106 ft 481 kts 101°
2026-04-26 05:33 40.25941 -3.63004 36106 ft 481 kts 102°
2026-04-26 05:33 40.24409 -3.54460 36109 ft 480 kts 102°
2026-04-26 05:34 40.22882 -3.45989 36106 ft 480 kts 102°
2026-04-26 05:34 40.21356 -3.37552 36104 ft 478 kts 102°
2026-04-26 05:35 40.19808 -3.29008 36107 ft 478 kts 102°
2026-04-26 05:35 40.18276 -3.20593 36107 ft 477 kts 102°
2026-04-26 05:36 40.16732 -3.12163 36108 ft 477 kts 102°
2026-04-26 05:36 40.15179 -3.03720 36109 ft 477 kts 103°
2026-04-26 05:37 40.13620 -2.95298 36109 ft 477 kts 103°
2026-04-26 05:37 40.12064 -2.86920 36112 ft 477 kts 102°
2026-04-26 05:38 40.10491 -2.78492 36116 ft 476 kts 102°
2026-04-26 05:38 40.08922 -2.70123 36117 ft 476 kts 102°
2026-04-26 05:39 40.07343 -2.61734 36120 ft 476 kts 102°
2026-04-26 05:39 40.05765 -2.53385 36121 ft 476 kts 102°
2026-04-26 05:40 40.04178 -2.45023 36122 ft 475 kts 102°
2026-04-26 05:40 40.02576 -2.36627 36124 ft 475 kts 102°
2026-04-26 05:41 40.00977 -2.28266 36121 ft 476 kts 103°
2026-04-26 05:41 39.99078 -2.20021 36122 ft 475 kts 109°
2026-04-26 05:42 39.96510 -2.12037 36117 ft 476 kts 115°
2026-04-26 05:42 39.93408 -2.04467 36121 ft 477 kts 117°
2026-04-26 05:43 39.90181 -1.96874 36122 ft 477 kts 117°
2026-04-26 05:43 39.86946 -1.89322 36120 ft 477 kts 118°
2026-04-26 05:44 39.83704 -1.81760 36121 ft 477 kts 117°
2026-04-26 05:44 39.80480 -1.74220 36119 ft 476 kts 117°
2026-04-26 05:45 39.77265 -1.66701 36115 ft 475 kts 117°
2026-04-26 05:45 39.74068 -1.59238 36124 ft 475 kts 117°
2026-04-26 05:46 39.70847 -1.51753 36127 ft 476 kts 117°
2026-04-26 05:46 39.67600 -1.44247 36119 ft 475 kts 117°
2026-04-26 05:47 39.64362 -1.36766 36115 ft 475 kts 117°
2026-04-26 05:47 39.61143 -1.29322 36117 ft 475 kts 118°
2026-04-26 05:48 39.57901 -1.21839 36119 ft 474 kts 118°
2026-04-26 05:48 39.54678 -1.14441 36121 ft 474 kts 118°
2026-04-26 05:49 39.49797 -1.03287 36123 ft 474 kts 118°
2026-04-26 05:50 39.46535 -0.95852 36126 ft 474 kts 117°
2026-04-26 05:50 39.43297 -0.88481 36111 ft 473 kts 117°
2026-04-26 05:51 39.40072 -0.81118 36109 ft 473 kts 118°
2026-04-26 05:51 39.36799 -0.73715 36097 ft 473 kts 118°
2026-04-26 05:52 39.33540 -0.66360 36093 ft 472 kts 118°
2026-04-26 05:52 39.30331 -0.58997 36078 ft 471 kts 115°
2026-04-26 05:53 39.27607 -0.51349 36083 ft 469 kts 109°
2026-04-26 05:53 39.25486 -0.43465 36084 ft 469 kts 106°
2026-04-26 05:54 39.23494 -0.35479 36075 ft 468 kts 106°
2026-04-26 05:54 39.21501 -0.27502 36086 ft 468 kts 107°
2026-04-26 05:55 39.19509 -0.19565 36086 ft 468 kts 107°
2026-04-26 05:55 39.17501 -0.11613 36063 ft 468 kts 107°
2026-04-26 05:56 39.15485 -0.03659 36068 ft 467 kts 107°
2026-04-26 05:56 39.13477 0.04237 36080 ft 466 kts 107°
2026-04-26 05:57 39.11452 0.12173 36072 ft 467 kts 107°
2026-04-26 05:57 39.09435 0.20046 36076 ft 467 kts 107°
2026-04-26 05:58 39.07394 0.27992 36075 ft 468 kts 107°
2026-04-26 05:58 39.05353 0.35909 36074 ft 468 kts 107°
2026-04-26 05:59 39.03310 0.43811 36076 ft 468 kts 107°
2026-04-26 05:59 39.01254 0.51740 36073 ft 468 kts 107°
2026-04-26 06:00 38.99199 0.59642 36075 ft 468 kts 107°
2026-04-26 06:00 38.97133 0.67561 36074 ft 469 kts 108°
2026-04-26 06:01 38.95069 0.75471 36070 ft 469 kts 108°
2026-04-26 06:01 38.92994 0.83390 36072 ft 469 kts 108°
2026-04-26 06:02 38.90910 0.91303 36072 ft 468 kts 108°
2026-04-26 06:02 38.88823 0.99158 36073 ft 469 kts 108°
2026-04-26 06:03 38.86694 1.07079 36083 ft 469 kts 108°
2026-04-26 06:03 38.84587 1.14948 36089 ft 470 kts 108°
2026-04-26 06:04 38.82473 1.22848 36084 ft 470 kts 108°
2026-04-26 06:04 38.80365 1.30716 36078 ft 469 kts 108°
2026-04-26 06:05 38.78244 1.38620 36083 ft 469 kts 108°
2026-04-26 06:05 38.76124 1.46489 36089 ft 469 kts 108°
2026-04-26 06:06 38.74003 1.54343 36083 ft 469 kts 108°
2026-04-26 06:06 38.71869 1.62216 36086 ft 469 kts 108°
2026-04-26 06:07 38.69740 1.70057 36089 ft 468 kts 109°
2026-04-26 06:07 38.67594 1.77962 36083 ft 473 kts 109°
2026-04-26 06:08 38.65431 1.85886 36086 ft 475 kts 109°
2026-04-26 06:08 38.63245 1.93862 36084 ft 475 kts 109°
2026-04-26 06:09 38.61062 2.01792 36083 ft 475 kts 109°
2026-04-26 06:09 38.58881 2.09696 36079 ft 474 kts 109°
2026-04-26 06:10 38.56690 2.17610 36083 ft 476 kts 109°
2026-04-26 06:10 38.54479 2.25569 36081 ft 476 kts 109°
2026-04-26 06:11 38.52268 2.33505 36087 ft 476 kts 109°
2026-04-26 06:11 38.50054 2.41431 36082 ft 477 kts 109°
2026-04-26 06:12 38.47812 2.49433 36087 ft 478 kts 109°
2026-04-26 06:12 38.45581 2.57373 36091 ft 478 kts 109°
2026-04-26 06:13 38.43346 2.65299 36089 ft 479 kts 110°
2026-04-26 06:13 38.41096 2.73283 36087 ft 479 kts 110°
2026-04-26 06:14 38.38839 2.81262 36090 ft 479 kts 110°
2026-04-26 06:14 38.36571 2.89244 36091 ft 480 kts 110°
2026-04-26 06:15 38.34287 2.97249 36095 ft 482 kts 110°
2026-04-26 06:15 38.32012 3.05196 36090 ft 482 kts 110°
2026-04-26 06:16 38.29714 3.13199 36091 ft 482 kts 110°
2026-04-26 06:16 38.27409 3.21209 36086 ft 481 kts 110°
2026-04-26 06:17 38.25100 3.29204 36082 ft 482 kts 110°
2026-04-26 06:17 38.22798 3.37151 36092 ft 482 kts 110°
2026-04-26 06:18 38.20460 3.45105 36097 ft 482 kts 111°
2026-04-26 06:18 38.17981 3.53057 36091 ft 483 kts 111°
2026-04-26 06:19 38.15511 3.60928 36092 ft 482 kts 111°
2026-04-26 06:19 38.13029 3.68853 36091 ft 482 kts 112°
2026-04-26 06:20 38.10566 3.76729 36094 ft 483 kts 112°
2026-04-26 06:20 38.08090 3.84621 36094 ft 483 kts 112°
2026-04-26 06:21 38.05613 3.92477 36097 ft 483 kts 112°
2026-04-26 06:21 38.03109 4.00399 36089 ft 483 kts 112°
2026-04-26 06:22 38.00603 4.08298 36088 ft 484 kts 112°
2026-04-26 06:22 37.98101 4.16168 36087 ft 484 kts 112°
2026-04-26 06:23 37.95585 4.24061 36089 ft 484 kts 112°
2026-04-26 06:23 37.93076 4.31907 36080 ft 486 kts 112°
2026-04-26 06:24 37.90535 4.39834 36084 ft 486 kts 112°
2026-04-26 06:24 37.87956 4.47794 36077 ft 488 kts 112°
2026-04-26 06:25 37.85376 4.55719 36076 ft 489 kts 112°
2026-04-26 06:25 37.82798 4.63667 36071 ft 492 kts 112°
2026-04-26 06:26 37.80221 4.71643 36076 ft 494 kts 112°
2026-04-26 06:26 37.77622 4.79666 36074 ft 495 kts 112°
2026-04-26 06:27 37.75008 4.87702 36072 ft 496 kts 112°
2026-04-26 06:27 37.72392 4.95709 36071 ft 495 kts 112°
2026-04-26 06:28 37.69820 5.03730 36072 ft 496 kts 111°
2026-04-26 06:28 37.67409 5.11877 36073 ft 497 kts 110°
2026-04-26 06:29 37.65004 5.20019 36072 ft 498 kts 111°
2026-04-26 06:29 37.62569 5.28194 36074 ft 498 kts 111°
2026-04-26 06:30 37.60118 5.36381 36073 ft 498 kts 111°
2026-04-26 06:30 37.57671 5.44517 36075 ft 498 kts 111°
2026-04-26 06:31 37.55222 5.52631 36077 ft 499 kts 111°
2026-04-26 06:31 37.52752 5.60795 36079 ft 499 kts 111°
2026-04-26 06:32 37.50281 5.68952 36078 ft 500 kts 112°
2026-04-26 06:32 37.47809 5.77104 36078 ft 500 kts 112°
2026-04-26 06:33 37.45331 5.85238 36080 ft 500 kts 112°
2026-04-26 06:33 37.42844 5.93363 36081 ft 500 kts 112°
2026-04-26 06:34 37.40357 6.01470 36079 ft 500 kts 112°
2026-04-26 06:34 37.37846 6.09620 36080 ft 499 kts 112°
2026-04-26 06:35 37.35340 6.17737 36076 ft 499 kts 112°
2026-04-26 06:35 37.32844 6.25801 36074 ft 497 kts 112°
2026-04-26 06:36 37.30335 6.33880 36076 ft 494 kts 112°
2026-04-26 06:36 37.27830 6.41922 36076 ft 493 kts 112°
2026-04-26 06:37 37.25331 6.49919 36075 ft 494 kts 112°
2026-04-26 06:37 37.22822 6.57929 36074 ft 494 kts 112°
2026-04-26 06:38 37.20310 6.65929 36075 ft 495 kts 112°
2026-04-26 06:38 37.17791 6.73963 36073 ft 495 kts 112°
2026-04-26 06:39 37.15270 6.81964 36072 ft 496 kts 112°
2026-04-26 06:39 37.12719 6.90023 36071 ft 497 kts 112°
2026-04-26 06:40 37.10174 6.98032 36073 ft 497 kts 112°
2026-04-26 06:40 37.07628 7.06025 36068 ft 497 kts 112°
2026-04-26 06:41 37.05051 7.14091 36069 ft 498 kts 112°
2026-04-26 06:41 37.02475 7.22133 36069 ft 498 kts 112°
2026-04-26 06:42 36.99879 7.30219 36071 ft 499 kts 112°
2026-04-26 06:42 36.97283 7.38278 36073 ft 499 kts 113°
2026-04-26 06:43 36.94680 7.46335 36076 ft 499 kts 113°
2026-04-26 06:43 36.92088 7.54335 36075 ft 500 kts 113°
2026-04-26 06:44 36.89462 7.62411 36079 ft 502 kts 112°
2026-04-26 06:44 36.86804 7.70403 36076 ft 503 kts 115°
2026-04-26 06:45 36.83594 7.78162 36072 ft 502 kts 122°
2026-04-26 06:45 36.79708 7.85347 36077 ft 502 kts 129°
2026-04-26 06:46 36.75134 7.91970 36079 ft 500 kts 136°
2026-04-26 06:46 36.70327 7.98184 36080 ft 500 kts 136°
2026-04-26 06:47 36.65471 8.04458 36091 ft 501 kts 136°
2026-04-26 06:47 36.60638 8.10710 36100 ft 503 kts 136°
2026-04-26 06:48 36.55787 8.16979 36114 ft 504 kts 136°
2026-04-26 06:48 36.50911 8.23274 36124 ft 505 kts 136°
2026-04-26 06:49 36.46154 8.29660 36133 ft 507 kts 131°
2026-04-26 06:49 36.42195 8.36953 36126 ft 511 kts 120°
2026-04-26 06:50 36.39373 8.45023 36120 ft 513 kts 108°
2026-04-26 06:50 36.37701 8.53583 36122 ft 514 kts 101°
2026-04-26 06:51 36.36371 8.62320 36120 ft 514 kts 101°
2026-04-26 06:51 36.34340 8.75377 36117 ft 513 kts 101°
2026-04-26 06:52 36.32968 8.83974 36117 ft 513 kts 102°
2026-04-26 06:52 36.31582 8.92592 36114 ft 512 kts 101°
2026-04-26 06:53 36.30181 9.01243 36113 ft 511 kts 101°
2026-04-26 06:53 36.28780 9.09866 36106 ft 510 kts 101°
2026-04-26 06:54 36.27374 9.18471 36106 ft 511 kts 101°
2026-04-26 06:54 36.25960 9.27080 36105 ft 511 kts 101°
2026-04-26 06:55 36.24700 9.35695 36107 ft 512 kts 98°
2026-04-26 06:55 36.23678 9.44401 36105 ft 511 kts 97°
2026-04-26 06:56 36.22656 9.53129 36106 ft 511 kts 98°
2026-04-26 06:56 36.21621 9.61848 36103 ft 511 kts 98°
2026-04-26 06:57 36.20584 9.70534 36106 ft 511 kts 98°
2026-04-26 06:57 36.19541 9.79202 36103 ft 511 kts 98°
2026-04-26 06:58 36.18491 9.87871 36105 ft 511 kts 98°
2026-04-26 06:58 36.17426 9.96591 36103 ft 511 kts 98°
2026-04-26 06:59 36.16363 10.05236 36102 ft 510 kts 98°
2026-04-26 06:59 36.15086 10.13875 36100 ft 510 kts 103°
2026-04-26 07:00 36.13113 10.22259 36101 ft 511 kts 108°
2026-04-26 07:00 36.10863 10.30597 36099 ft 510 kts 108°
2026-04-26 07:01 36.08843 10.38956 36105 ft 510 kts 103°
2026-04-26 07:01 36.07536 10.47519 36107 ft 509 kts 96°
2026-04-26 07:02 36.06990 10.56179 36108 ft 508 kts 90°
2026-04-26 07:02 36.06769 10.64871 36108 ft 508 kts 90°
2026-04-26 07:03 36.06538 10.73603 36109 ft 507 kts 91°
2026-04-26 07:03 36.06288 10.82272 36112 ft 507 kts 91°
2026-04-26 07:04 36.06025 10.90931 36111 ft 506 kts 91°
2026-04-26 07:04 36.05754 10.99612 36113 ft 506 kts 91°
2026-04-26 07:05 36.05477 11.08284 36115 ft 506 kts 91°
2026-04-26 07:05 36.05193 11.16959 36114 ft 505 kts 91°
2026-04-26 07:06 36.04905 11.25568 36117 ft 506 kts 91°
2026-04-26 07:06 36.04606 11.34261 36119 ft 505 kts 91°
2026-04-26 07:07 36.04310 11.42873 36119 ft 505 kts 92°
2026-04-26 07:07 36.03585 11.51498 36121 ft 505 kts 98°
2026-04-26 07:08 36.02135 11.59962 36127 ft 506 kts 103°
2026-04-26 07:08 36.00465 11.68332 36126 ft 505 kts 104°
2026-04-26 07:09 35.98792 11.76722 36125 ft 504 kts 103°
2026-04-26 07:09 35.97119 11.85121 36123 ft 504 kts 103°
2026-04-26 07:11 35.92919 12.06070 36129 ft 505 kts 103°
2026-04-26 07:11 35.91227 12.14456 36133 ft 507 kts 103°
2026-04-26 07:12 35.89511 12.22912 36129 ft 506 kts 104°
2026-04-26 07:12 35.87770 12.31312 36131 ft 507 kts 103°
2026-04-26 07:13 35.86042 12.39687 36131 ft 507 kts 103°
2026-04-26 07:13 35.84317 12.48073 36134 ft 506 kts 103°
2026-04-26 07:14 35.82598 12.56425 36132 ft 507 kts 103°
2026-04-26 07:14 35.80867 12.64810 36136 ft 506 kts 103°
2026-04-26 07:15 35.79134 12.73201 36131 ft 506 kts 104°
2026-04-26 07:15 35.77390 12.81605 36132 ft 507 kts 104°
2026-04-26 07:16 35.75638 12.90002 36135 ft 507 kts 104°
2026-04-26 07:16 35.73885 12.98364 36135 ft 506 kts 104°
2026-04-26 07:17 35.72128 13.06715 36134 ft 507 kts 104°
2026-04-26 07:17 35.70353 13.15119 36130 ft 507 kts 104°
2026-04-26 07:18 35.68586 13.23457 36128 ft 507 kts 104°
2026-04-26 07:18 35.66808 13.31815 36130 ft 507 kts 104°
2026-04-26 07:19 35.65025 13.40169 36130 ft 506 kts 104°
2026-04-26 07:19 35.63237 13.48509 36125 ft 506 kts 104°
2026-04-26 07:20 35.61439 13.56869 36130 ft 506 kts 104°
2026-04-26 07:20 35.59645 13.65176 36134 ft 506 kts 104°
2026-04-26 07:21 35.57845 13.73507 36130 ft 506 kts 104°
2026-04-26 07:21 35.56033 13.81868 36129 ft 505 kts 104°
2026-04-26 07:22 35.54218 13.90192 36130 ft 505 kts 104°
2026-04-26 07:22 35.52393 13.98526 36132 ft 505 kts 104°
2026-04-26 07:23 35.50581 14.06770 36132 ft 506 kts 104°
2026-04-26 07:23 35.48748 14.15076 36133 ft 506 kts 104°
2026-04-26 07:24 35.46904 14.23409 36134 ft 506 kts 104°
2026-04-26 07:24 35.45071 14.31661 36132 ft 506 kts 104°
2026-04-26 07:25 35.43217 14.39993 36133 ft 505 kts 104°
2026-04-26 07:25 35.41363 14.48282 36130 ft 505 kts 104°
2026-04-26 07:26 35.39535 14.56557 36129 ft 505 kts 104°
2026-04-26 07:26 35.37736 14.64874 36127 ft 506 kts 104°
2026-04-26 07:27 35.35936 14.73195 36130 ft 506 kts 104°
2026-04-26 07:27 35.34130 14.81498 36130 ft 506 kts 104°
2026-04-26 07:28 35.32315 14.89794 36128 ft 506 kts 104°
2026-04-26 07:28 35.30489 14.98107 36128 ft 506 kts 104°
2026-04-26 07:29 35.28658 15.06403 36126 ft 506 kts 104°
2026-04-26 07:29 35.26830 15.14656 36123 ft 506 kts 104°
2026-04-26 07:30 35.24986 15.22957 36124 ft 505 kts 104°
2026-04-26 07:30 35.23150 15.31193 36125 ft 505 kts 104°
2026-04-26 07:31 35.21299 15.39465 36127 ft 505 kts 104°
2026-04-26 07:31 35.19454 15.47682 36126 ft 505 kts 104°
2026-04-26 07:32 35.17588 15.55966 36124 ft 505 kts 104°
2026-04-26 07:32 35.15716 15.64245 36125 ft 506 kts 104°
2026-04-26 07:33 35.13859 15.72452 36119 ft 506 kts 105°
2026-04-26 07:33 35.11976 15.80745 36122 ft 505 kts 105°
2026-04-26 07:34 35.10097 15.88976 36117 ft 506 kts 104°
2026-04-26 07:34 35.08209 15.97222 36112 ft 506 kts 105°
2026-04-26 07:35 35.06309 16.05488 36115 ft 505 kts 105°
2026-04-26 07:35 35.04412 16.13705 36114 ft 505 kts 105°
2026-04-26 07:36 35.02507 16.21930 36114 ft 506 kts 105°
2026-04-26 07:36 35.00597 16.30145 36118 ft 506 kts 104°
2026-04-26 07:37 34.98670 16.38414 36124 ft 506 kts 105°
2026-04-26 07:37 34.96747 16.46639 36126 ft 506 kts 105°
2026-04-26 07:38 34.94811 16.54886 36125 ft 506 kts 105°
2026-04-26 07:38 34.92879 16.63089 36123 ft 505 kts 105°
2026-04-26 07:39 34.90946 16.71285 36122 ft 505 kts 105°
2026-04-26 07:39 34.89000 16.79483 36123 ft 506 kts 105°
2026-04-26 07:40 34.87014 16.87705 36120 ft 506 kts 105°
2026-04-26 07:40 34.85047 16.95891 36119 ft 507 kts 105°
2026-04-26 07:41 34.83074 17.04114 36118 ft 507 kts 105°
2026-04-26 07:41 34.81098 17.12333 36114 ft 506 kts 105°
2026-04-26 07:42 34.79113 17.20569 36117 ft 505 kts 105°
2026-04-26 07:42 34.77137 17.28741 36117 ft 506 kts 105°
2026-04-26 07:43 34.75150 17.36936 36116 ft 506 kts 105°
2026-04-26 07:43 34.73158 17.45121 36116 ft 506 kts 105°
2026-04-26 07:44 34.71160 17.53305 36117 ft 506 kts 105°
2026-04-26 07:44 34.69152 17.61505 36116 ft 506 kts 105°
2026-04-26 07:45 34.67146 17.69683 36113 ft 506 kts 105°
2026-04-26 07:45 34.65128 17.77897 36116 ft 506 kts 105°
2026-04-26 07:46 34.63121 17.86025 36114 ft 507 kts 105°
2026-04-26 07:46 34.61102 17.94173 36112 ft 506 kts 105°
2026-04-26 07:47 34.59066 18.02354 36114 ft 507 kts 105°
2026-04-26 07:47 34.57021 18.10543 36110 ft 507 kts 105°
2026-04-26 07:48 34.54987 18.18664 36111 ft 507 kts 105°
2026-04-26 07:48 34.52933 18.26844 36111 ft 507 kts 105°
2026-04-26 07:49 34.50887 18.34962 36108 ft 506 kts 105°
2026-04-26 07:49 34.48832 18.43096 36108 ft 506 kts 105°
2026-04-26 07:50 34.45736 18.55299 36105 ft 507 kts 105°
2026-04-26 07:50 34.43656 18.63469 36109 ft 507 kts 105°
2026-04-26 07:51 34.41587 18.71586 36105 ft 507 kts 105°
2026-04-26 07:51 34.39498 18.79759 36103 ft 507 kts 105°
2026-04-26 07:52 34.37415 18.87876 36104 ft 507 kts 106°
2026-04-26 07:52 34.35331 18.95959 36109 ft 506 kts 106°
2026-04-26 07:53 34.33050 19.03998 36108 ft 508 kts 110°
2026-04-26 07:53 34.30120 19.11795 36107 ft 510 kts 114°
2026-04-26 07:54 34.27018 19.19519 36100 ft 510 kts 114°
2026-04-26 07:54 34.23924 19.27214 36103 ft 510 kts 114°
2026-04-26 07:55 34.20830 19.34914 36096 ft 510 kts 114°
2026-04-26 07:55 34.17744 19.42584 36093 ft 510 kts 114°
2026-04-26 07:56 34.14624 19.50324 36093 ft 511 kts 114°
2026-04-26 07:56 34.11520 19.58012 36083 ft 511 kts 114°
2026-04-26 07:57 34.08413 19.65685 36082 ft 512 kts 115°
2026-04-26 07:57 34.05300 19.73379 36081 ft 513 kts 115°
2026-04-26 07:58 34.02168 19.81102 36079 ft 513 kts 115°
2026-04-26 07:58 33.99034 19.88793 36077 ft 512 kts 115°
2026-04-26 07:59 33.95896 19.96471 36069 ft 513 kts 115°
2026-04-26 07:59 33.92749 20.04158 36068 ft 513 kts 114°
2026-04-26 08:00 33.89591 20.11855 36074 ft 514 kts 115°
2026-04-26 08:00 33.86407 20.19521 36073 ft 515 kts 115°
2026-04-26 08:01 33.83194 20.27261 36077 ft 516 kts 115°
2026-04-26 08:01 33.80003 20.34969 36079 ft 517 kts 115°
2026-04-26 08:02 33.76799 20.42702 36076 ft 517 kts 114°
2026-04-26 08:02 33.73615 20.50376 36066 ft 517 kts 115°
2026-04-26 08:03 33.70407 20.58086 36064 ft 518 kts 115°
2026-04-26 08:03 33.67172 20.65853 36069 ft 518 kts 115°
2026-04-26 08:04 33.63956 20.73580 36063 ft 520 kts 115°
2026-04-26 08:04 33.60714 20.81342 36069 ft 520 kts 115°
2026-04-26 08:05 33.57468 20.89087 36061 ft 520 kts 115°
2026-04-26 08:05 33.54225 20.96801 36060 ft 521 kts 115°
2026-04-26 08:06 33.50967 21.04525 36044 ft 522 kts 115°
2026-04-26 08:06 33.47685 21.12281 36049 ft 523 kts 115°
2026-04-26 08:07 33.44402 21.20032 36052 ft 523 kts 115°
2026-04-26 08:07 33.41102 21.27809 36055 ft 524 kts 115°
2026-04-26 08:08 33.37798 21.35588 36047 ft 525 kts 115°
2026-04-26 08:08 33.34501 21.43328 36049 ft 525 kts 115°
2026-04-26 08:09 33.31184 21.51095 36052 ft 525 kts 115°
2026-04-26 08:09 33.27852 21.58887 36054 ft 527 kts 115°
2026-04-26 08:10 33.24527 21.66646 36048 ft 527 kts 116°
2026-04-26 08:10 33.21184 21.74457 36050 ft 528 kts 116°
2026-04-26 08:11 33.17832 21.82262 36052 ft 529 kts 116°
2026-04-26 08:11 33.14475 21.90044 36035 ft 530 kts 116°
2026-04-26 08:12 33.11100 21.97848 36050 ft 531 kts 116°
2026-04-26 08:12 33.07703 22.05688 36029 ft 532 kts 116°
2026-04-26 08:13 33.04324 22.13467 36052 ft 532 kts 116°
2026-04-26 08:13 33.00908 22.21315 36037 ft 533 kts 116°
2026-04-26 08:14 32.97478 22.29170 36039 ft 534 kts 116°
2026-04-26 08:14 32.94044 22.37027 36058 ft 535 kts 117°
2026-04-26 08:15 32.90609 22.44862 36045 ft 536 kts 116°
2026-04-26 08:15 32.87145 22.52698 36033 ft 536 kts 117°
2026-04-26 08:16 32.83667 22.60528 36029 ft 537 kts 117°
2026-04-26 08:16 32.80176 22.68427 36027 ft 538 kts 117°
2026-04-26 08:17 32.76713 22.76287 36021 ft 538 kts 117°
2026-04-26 08:17 32.73243 22.84131 36029 ft 539 kts 118°
2026-04-26 08:18 32.69743 22.92024 36022 ft 540 kts 118°
2026-04-26 08:18 32.66233 22.99903 36014 ft 542 kts 118°
2026-04-26 08:19 32.62718 23.07779 36013 ft 541 kts 117°
2026-04-26 08:19 32.59206 23.15644 36018 ft 543 kts 117°
2026-04-26 08:20 32.55661 23.23553 36010 ft 544 kts 118°
2026-04-26 08:20 32.52112 23.31458 36116 ft 543 kts 118°
2026-04-26 08:21 32.48571 23.39325 36027 ft 542 kts 118°
2026-04-26 08:21 32.45026 23.47189 36006 ft 541 kts 118°
2026-04-26 08:22 32.41474 23.55046 36003 ft 542 kts 118°
2026-04-26 08:22 32.37922 23.62891 35998 ft 542 kts 118°
2026-04-26 08:23 32.34363 23.70748 35996 ft 542 kts 119°
2026-04-26 08:23 32.30814 23.78588 35998 ft 544 kts 119°
2026-04-26 08:24 32.27228 23.86461 36007 ft 543 kts 119°
2026-04-26 08:24 32.23640 23.94315 36019 ft 545 kts 120°
2026-04-26 08:25 32.20029 24.02201 36013 ft 546 kts 119°
2026-04-26 08:25 32.16416 24.10077 36005 ft 546 kts 120°
2026-04-26 08:26 32.12815 24.17916 36007 ft 547 kts 120°
2026-04-26 08:26 32.09162 24.25839 36012 ft 547 kts 120°
2026-04-26 08:27 32.05529 24.33707 36007 ft 548 kts 120°
2026-04-26 08:27 32.01865 24.41625 36007 ft 549 kts 120°
2026-04-26 08:28 31.98225 24.49475 36001 ft 548 kts 120°
2026-04-26 08:28 31.94562 24.57359 35996 ft 548 kts 120°
2026-04-26 08:29 31.90902 24.65214 36000 ft 550 kts 120°
2026-04-26 08:29 31.87199 24.73146 36000 ft 550 kts 121°
2026-04-26 08:30 31.83503 24.81016 35998 ft 550 kts 121°
2026-04-26 08:30 31.79818 24.88881 35994 ft 551 kts 121°
2026-04-26 08:31 31.76134 24.96739 35999 ft 551 kts 121°
2026-04-26 08:31 31.72471 25.04678 35995 ft 553 kts 118°
2026-04-26 08:32 31.69461 25.12949 35996 ft 555 kts 110°
2026-04-26 08:32 31.67348 25.21652 35988 ft 556 kts 102°
2026-04-26 08:33 31.66108 25.30574 35990 ft 556 kts 97°
2026-04-26 08:33 31.65077 25.39567 35986 ft 557 kts 97°
2026-04-26 08:34 31.64012 25.48532 35984 ft 557 kts 98°
2026-04-26 08:34 31.62914 25.57513 35988 ft 557 kts 97°
2026-04-26 08:35 31.61805 25.66490 35980 ft 558 kts 98°
2026-04-26 08:35 31.60690 25.75506 35983 ft 558 kts 98°
2026-04-26 08:36 31.59573 25.84454 35975 ft 557 kts 98°
2026-04-26 08:36 31.58443 25.93465 35971 ft 558 kts 99°
2026-04-26 08:37 31.57173 26.02375 35970 ft 558 kts 103°
2026-04-26 08:37 31.55372 26.11265 35973 ft 560 kts 104°
2026-04-26 08:38 31.53523 26.20094 35973 ft 559 kts 104°
2026-04-26 08:38 31.51683 26.28918 35967 ft 559 kts 104°
2026-04-26 08:39 31.49847 26.37745 35969 ft 560 kts 104°
2026-04-26 08:39 31.47998 26.46612 35968 ft 560 kts 104°
2026-04-26 08:40 31.46159 26.55401 35963 ft 561 kts 105°
2026-04-26 08:40 31.44291 26.64297 35972 ft 561 kts 105°
2026-04-26 08:41 31.42414 26.73222 35963 ft 562 kts 105°
2026-04-26 08:41 31.40554 26.82045 35972 ft 563 kts 105°
2026-04-26 08:42 31.38664 26.90958 35966 ft 563 kts 105°
2026-04-26 08:42 31.36786 26.99775 35969 ft 563 kts 105°
2026-04-26 08:43 31.34884 27.08666 35967 ft 564 kts 106°
2026-04-26 08:43 31.32604 27.17410 35972 ft 561 kts 113°
2026-04-26 08:44 31.29446 27.25772 35965 ft 557 kts 121°
2026-04-26 08:44 31.25518 27.33476 35968 ft 552 kts 128°
2026-04-26 08:45 31.21177 27.40882 35967 ft 552 kts 129°
2026-04-26 08:45 31.16844 27.48299 35960 ft 553 kts 129°
2026-04-26 08:46 31.12514 27.55747 35960 ft 553 kts 129°
2026-04-26 08:46 31.08126 27.63107 35822 ft 552 kts 130°
2026-04-26 08:47 31.03720 27.70469 35931 ft 555 kts 130°
2026-04-26 08:47 30.99314 27.77856 35958 ft 555 kts 130°
2026-04-26 08:48 30.94900 27.85233 35963 ft 555 kts 130°
2026-04-26 08:48 30.90464 27.92619 35961 ft 555 kts 130°
2026-04-26 08:49 30.86032 27.99952 35948 ft 554 kts 131°
2026-04-26 08:49 30.81551 28.07344 35964 ft 556 kts 131°
2026-04-26 08:50 30.77102 28.14698 35976 ft 556 kts 131°
2026-04-26 08:50 30.72657 28.22044 35982 ft 556 kts 131°
2026-04-26 08:51 30.65991 28.33039 35991 ft 556 kts 131°
2026-04-26 08:52 30.61516 28.40406 36008 ft 555 kts 131°
2026-04-26 08:52 30.57066 28.47712 35945 ft 556 kts 131°
2026-04-26 08:53 30.52577 28.55067 35968 ft 557 kts 131°
2026-04-26 08:53 30.48108 28.62384 35950 ft 558 kts 131°
2026-04-26 08:53 30.45870 28.66045 36115 ft 559 kts 132°
2026-04-26 08:54 30.43610 28.69753 36037 ft 558 kts 131°
2026-04-26 08:54 30.39156 28.77055 35995 ft 556 kts 132°
2026-04-26 08:55 30.34669 28.84368 35990 ft 557 kts 132°
2026-04-26 08:55 30.30160 28.91695 35990 ft 557 kts 132°
2026-04-26 08:56 30.25672 28.98975 35998 ft 557 kts 132°
2026-04-26 08:56 30.21195 29.06230 36001 ft 557 kts 132°
2026-04-26 08:57 30.16659 29.13569 35997 ft 558 kts 132°
2026-04-26 08:57 30.12186 29.20821 36004 ft 559 kts 131°
2026-04-26 08:58 30.07729 29.28171 36003 ft 560 kts 131°
2026-04-26 08:58 30.03268 29.35573 36011 ft 559 kts 131°
2026-04-26 08:59 29.98820 29.42929 36012 ft 559 kts 131°
2026-04-26 08:59 29.94390 29.50229 36014 ft 560 kts 131°
2026-04-26 09:00 29.89930 29.57567 36014 ft 560 kts 131°
2026-04-26 09:00 29.85517 29.64775 36009 ft 561 kts 131°
2026-04-26 09:01 29.81041 29.72116 36003 ft 561 kts 132°
2026-04-26 09:01 29.76582 29.79437 36006 ft 561 kts 132°
2026-04-26 09:02 29.72085 29.86789 36006 ft 561 kts 132°
2026-04-26 09:02 29.67595 29.94120 36011 ft 560 kts 132°
2026-04-26 09:03 29.63122 30.01403 36014 ft 560 kts 133°
2026-04-26 09:03 29.58638 30.08696 36010 ft 560 kts 133°
2026-04-26 09:04 29.54149 30.15981 36010 ft 560 kts 133°
2026-04-26 09:04 29.49663 30.23258 36012 ft 559 kts 133°
2026-04-26 09:05 29.45161 30.30543 36004 ft 560 kts 133°
2026-04-26 09:05 29.40620 30.37732 35998 ft 555 kts 136°
2026-04-26 09:06 29.35565 30.44337 35995 ft 546 kts 142°
2026-04-26 09:06 29.30303 30.50570 35983 ft 547 kts 143°
2026-04-26 09:07 29.25018 30.56826 35981 ft 547 kts 143°
2026-04-26 09:07 29.19716 30.63119 35980 ft 548 kts 142°
2026-04-26 09:08 29.14458 30.69385 35973 ft 548 kts 142°
2026-04-26 09:08 29.09187 30.75676 35978 ft 547 kts 143°
2026-04-26 09:09 29.03896 30.81952 35979 ft 548 kts 143°
2026-04-26 09:09 28.98624 30.88187 35977 ft 547 kts 143°
2026-04-26 09:10 28.93342 30.94426 35974 ft 546 kts 143°
2026-04-26 09:10 28.88058 31.00644 35977 ft 546 kts 143°
2026-04-26 09:11 28.82748 31.06864 35982 ft 548 kts 143°
2026-04-26 09:11 28.77461 31.13074 35987 ft 548 kts 143°
2026-04-26 09:12 28.72156 31.19312 35987 ft 547 kts 143°
2026-04-26 09:12 28.66960 31.25633 35987 ft 549 kts 141°
2026-04-26 09:13 28.61820 31.32100 35990 ft 549 kts 141°
2026-04-26 09:13 28.56704 31.38540 35992 ft 550 kts 140°
2026-04-26 09:14 28.51564 31.44999 35997 ft 550 kts 141°
2026-04-26 09:14 28.46440 31.51428 36000 ft 549 kts 141°
2026-04-26 09:15 28.41335 31.57820 36002 ft 550 kts 141°
2026-04-26 09:15 28.36182 31.64262 36006 ft 551 kts 141°
2026-04-26 09:16 28.31046 31.70704 36002 ft 550 kts 141°
2026-04-26 09:16 28.25931 31.77109 36012 ft 551 kts 141°
2026-04-26 09:17 28.20779 31.83529 36019 ft 550 kts 141°
2026-04-26 09:17 28.15640 31.89916 36018 ft 550 kts 141°
2026-04-26 09:18 28.10455 31.96350 36025 ft 551 kts 141°
2026-04-26 09:18 28.05435 32.02866 36028 ft 557 kts 137°
2026-04-26 09:19 28.00939 32.10127 36025 ft 566 kts 129°
2026-04-26 09:19 27.97081 32.17941 36042 ft 571 kts 125°
2026-04-26 09:20 27.93334 32.25826 36050 ft 571 kts 125°
2026-04-26 09:20 27.89573 32.33666 36046 ft 571 kts 126°
2026-04-26 09:21 27.85752 32.41519 36040 ft 569 kts 126°
2026-04-26 09:21 27.81932 32.49352 36025 ft 569 kts 126°
2026-04-26 09:22 27.78112 32.57196 36017 ft 570 kts 126°
2026-04-26 09:22 27.74323 32.64979 36007 ft 571 kts 125°
2026-04-26 09:23 27.70508 32.72848 36002 ft 570 kts 126°
2026-04-26 09:23 27.66696 32.80677 35997 ft 571 kts 126°
2026-04-26 09:24 27.62867 32.88514 35991 ft 570 kts 126°
2026-04-26 09:24 27.59029 32.96341 36000 ft 570 kts 126°
2026-04-26 09:25 27.55190 33.04151 35993 ft 571 kts 126°
2026-04-26 09:25 27.51364 33.11927 35986 ft 571 kts 126°
2026-04-26 09:26 27.47502 33.19771 35979 ft 571 kts 126°
2026-04-26 09:26 27.43664 33.27555 35968 ft 572 kts 126°
2026-04-26 09:27 27.39815 33.35355 35963 ft 570 kts 126°
2026-04-26 09:27 27.35951 33.43131 35950 ft 571 kts 126°
2026-04-26 09:28 27.32066 33.50932 35937 ft 571 kts 126°
2026-04-26 09:28 27.28201 33.58698 35918 ft 571 kts 126°
2026-04-26 09:29 27.24328 33.66484 35899 ft 570 kts 126°
2026-04-26 09:29 27.20493 33.74214 35901 ft 568 kts 126°
2026-04-26 09:30 27.16897 33.82100 35900 ft 574 kts 120°
2026-04-26 09:30 27.13863 33.90458 35888 ft 578 kts 117°
2026-04-26 09:31 27.10943 33.98809 35881 ft 577 kts 117°
2026-04-26 09:31 27.07971 34.07198 35870 ft 578 kts 117°
2026-04-26 09:32 27.04991 34.15551 35865 ft 578 kts 117°
2026-04-26 09:32 27.02023 34.23839 35874 ft 577 kts 117°
2026-04-26 09:33 26.99018 34.32193 35873 ft 577 kts 118°
2026-04-26 09:33 26.96027 34.40494 35879 ft 576 kts 117°
2026-04-26 09:34 26.93026 34.48813 35875 ft 577 kts 117°
2026-04-26 09:34 26.90036 34.57091 35869 ft 576 kts 118°
2026-04-26 09:35 26.87007 34.65384 35865 ft 576 kts 118°
2026-04-26 09:35 26.83985 34.73700 35870 ft 575 kts 118°
2026-04-26 09:36 26.80988 34.81971 35877 ft 576 kts 117°
2026-04-26 09:36 26.77983 34.90237 35876 ft 576 kts 118°
2026-04-26 09:37 26.74958 34.98507 35875 ft 576 kts 118°
2026-04-26 09:37 26.71927 35.06766 35880 ft 575 kts 118°
2026-04-26 09:38 26.68903 35.15008 35875 ft 575 kts 118°
2026-04-26 09:38 26.65873 35.23263 35876 ft 576 kts 118°
2026-04-26 09:39 26.62844 35.31513 35876 ft 575 kts 118°
2026-04-26 09:39 26.59820 35.39740 35869 ft 574 kts 117°
2026-04-26 09:40 26.56780 35.47981 35869 ft 574 kts 117°
2026-04-26 09:40 26.53678 35.56150 35866 ft 572 kts 118°
2026-04-26 09:41 26.50550 35.64274 35866 ft 572 kts 118°
2026-04-26 09:41 26.47427 35.72443 35863 ft 571 kts 119°
2026-04-26 09:42 26.44305 35.80609 35865 ft 572 kts 118°
2026-04-26 09:42 26.41194 35.88724 35865 ft 570 kts 119°
2026-04-26 09:43 26.38084 35.96807 35862 ft 569 kts 119°
2026-04-26 09:43 26.34964 36.04890 35858 ft 570 kts 119°
2026-04-26 09:44 26.31826 36.13009 35861 ft 570 kts 118°
2026-04-26 09:44 26.28691 36.21112 35859 ft 570 kts 118°
2026-04-26 09:45 26.25559 36.29182 35863 ft 571 kts 118°
2026-04-26 09:45 26.22407 36.37310 35867 ft 570 kts 118°
2026-04-26 09:46 26.19262 36.45387 35868 ft 569 kts 118°
2026-04-26 09:46 26.15793 36.53222 35875 ft 564 kts 124°
2026-04-26 09:47 26.12013 36.60858 35872 ft 563 kts 125°
2026-04-26 09:47 26.08246 36.68445 35868 ft 563 kts 125°
2026-04-26 09:48 26.04482 36.76089 35869 ft 562 kts 125°
2026-04-26 09:48 26.00738 36.83666 35866 ft 563 kts 125°
2026-04-26 09:49 25.96961 36.91298 35863 ft 562 kts 125°
2026-04-26 09:49 25.93208 36.98858 35865 ft 562 kts 125°
2026-04-26 09:50 25.89433 37.06449 35876 ft 562 kts 125°
2026-04-26 09:50 25.85631 37.14028 35887 ft 562 kts 125°
2026-04-26 09:51 25.81862 37.21581 35897 ft 561 kts 125°
2026-04-26 09:51 25.78079 37.29149 35909 ft 562 kts 125°
2026-04-26 09:52 25.74293 37.36717 35917 ft 563 kts 125°
2026-04-26 09:52 25.68641 37.48040 35934 ft 563 kts 124°
2026-04-26 09:53 25.64846 37.55631 35953 ft 563 kts 124°
2026-04-26 09:53 25.61047 37.63221 35963 ft 562 kts 124°
2026-04-26 09:54 25.57257 37.70806 35969 ft 562 kts 124°
2026-04-26 09:54 25.53487 37.78346 35985 ft 561 kts 125°
2026-04-26 09:55 25.49713 37.85858 35992 ft 560 kts 125°
2026-04-26 09:55 25.45904 37.93414 36003 ft 561 kts 124°
2026-04-26 09:56 25.42108 38.00936 36009 ft 561 kts 124°
2026-04-26 09:56 25.38304 38.08466 36012 ft 560 kts 124°
2026-04-26 09:57 25.34521 38.15934 36012 ft 560 kts 124°
2026-04-26 09:57 25.30721 38.23428 36007 ft 559 kts 124°
2026-04-26 09:58 25.26923 38.30905 36000 ft 559 kts 124°
2026-04-26 09:58 25.23132 38.38365 35999 ft 559 kts 124°
2026-04-26 09:59 25.19956 38.44610 36004 ft 558 kts 124°
2026-04-26 09:59 25.15527 38.53287 36006 ft 558 kts 124°
2026-04-26 10:00 25.11686 38.60764 36022 ft 558 kts 124°
2026-04-26 10:00 25.07881 38.68185 36043 ft 557 kts 125°
2026-04-26 10:01 25.04090 38.75604 36067 ft 557 kts 125°
2026-04-26 10:01 25.00258 38.83064 36068 ft 557 kts 124°
2026-04-26 10:02 24.96453 38.90451 36039 ft 557 kts 125°
2026-04-26 10:02 24.92624 38.97854 36014 ft 557 kts 125°
2026-04-26 10:03 24.88797 39.05231 35996 ft 556 kts 125°
2026-04-26 10:03 24.84950 39.12602 36003 ft 556 kts 124°
2026-04-26 10:04 24.81105 39.20001 36006 ft 556 kts 125°
2026-04-26 10:04 24.77263 39.27364 36009 ft 556 kts 125°
2026-04-26 10:05 24.73416 39.34739 36029 ft 555 kts 124°
2026-04-26 10:05 24.69593 39.42074 36056 ft 554 kts 124°
2026-04-26 10:06 24.65777 39.49404 36072 ft 553 kts 124°
2026-04-26 10:06 24.61945 39.56750 36070 ft 553 kts 124°
2026-04-26 10:07 24.58261 39.64199 36057 ft 557 kts 119°
2026-04-26 10:07 24.55457 39.72116 36044 ft 561 kts 110°
2026-04-26 10:08 24.53705 39.80485 36042 ft 564 kts 101°
2026-04-26 10:08 24.52833 39.89040 36046 ft 565 kts 97°
2026-04-26 10:09 24.52078 39.97615 36054 ft 565 kts 97°
2026-04-26 10:09 24.51278 40.06157 36070 ft 565 kts 98°
2026-04-26 10:10 24.50447 40.14711 36072 ft 566 kts 97°
2026-04-26 10:10 24.49606 40.23279 36072 ft 565 kts 97°
2026-04-26 10:11 24.48759 40.31869 36073 ft 565 kts 97°
2026-04-26 10:11 24.47918 40.40375 36070 ft 565 kts 98°
2026-04-26 10:12 24.47065 40.48967 36067 ft 565 kts 97°
2026-04-26 10:12 24.46214 40.57472 36074 ft 565 kts 97°
2026-04-26 10:13 24.45350 40.66039 36077 ft 564 kts 98°
2026-04-26 10:13 24.44478 40.74538 36083 ft 563 kts 98°
2026-04-26 10:14 24.43606 40.83067 36070 ft 563 kts 98°
2026-04-26 10:14 24.42732 40.91568 36081 ft 563 kts 98°
2026-04-26 10:15 24.41852 41.00083 36074 ft 563 kts 98°
2026-04-26 10:15 24.40965 41.08607 36072 ft 563 kts 98°
2026-04-26 10:16 24.40064 41.17151 36080 ft 563 kts 98°
2026-04-26 10:16 24.39167 41.25630 36082 ft 563 kts 98°
2026-04-26 10:17 24.38269 41.34119 36093 ft 563 kts 98°
2026-04-26 10:17 24.37365 41.42630 36091 ft 562 kts 98°
2026-04-26 10:18 24.36454 41.51147 36092 ft 562 kts 98°
2026-04-26 10:18 24.35541 41.59674 36090 ft 562 kts 98°
2026-04-26 10:19 24.34626 41.68195 36083 ft 562 kts 98°
2026-04-26 10:19 24.33714 41.76631 36083 ft 562 kts 98°
2026-04-26 10:20 24.32649 41.83677 36086 ft 560 kts 104°
2026-04-26 10:20 24.30296 41.93234 36092 ft 558 kts 109°
2026-04-26 10:21 24.28122 42.01348 36087 ft 557 kts 109°
2026-04-26 10:21 24.25953 42.09488 36083 ft 557 kts 109°
2026-04-26 10:22 24.23795 42.17644 36078 ft 556 kts 109°
2026-04-26 10:22 24.21651 42.25741 36082 ft 555 kts 109°
2026-04-26 10:23 24.19507 42.33809 36094 ft 555 kts 108°
2026-04-26 10:23 24.17360 42.41888 36091 ft 554 kts 109°
2026-04-26 10:24 24.15205 42.49963 36099 ft 554 kts 108°
2026-04-26 10:24 24.13045 42.58051 36096 ft 553 kts 108°
2026-04-26 10:25 24.10887 42.66114 36096 ft 552 kts 109°
2026-04-26 10:25 24.08750 42.74120 36104 ft 552 kts 109°
2026-04-26 10:26 24.06580 42.82205 36108 ft 552 kts 109°
2026-04-26 10:26 24.04416 42.90226 36112 ft 552 kts 109°
2026-04-26 10:27 24.02245 42.98233 36113 ft 551 kts 109°
2026-04-26 10:27 24.00063 43.06267 36117 ft 552 kts 109°
2026-04-26 10:28 23.97885 43.14280 36118 ft 553 kts 109°
2026-04-26 10:28 23.95703 43.22296 36114 ft 553 kts 109°
2026-04-26 10:29 23.93510 43.30329 36113 ft 552 kts 108°
2026-04-26 10:29 23.91319 43.38343 36115 ft 552 kts 109°
2026-04-26 10:30 23.89117 43.46345 36124 ft 552 kts 109°
2026-04-26 10:30 23.86889 43.54342 36121 ft 551 kts 109°
2026-04-26 10:31 23.84682 43.62326 36118 ft 551 kts 108°
2026-04-26 10:31 23.82478 43.70358 36109 ft 552 kts 109°
2026-04-26 10:32 23.80287 43.78341 36110 ft 551 kts 109°
2026-04-26 10:32 23.78202 43.86403 36106 ft 552 kts 104°
2026-04-26 10:33 23.76883 43.94624 36109 ft 553 kts 97°
2026-04-26 10:33 23.76238 44.02930 36103 ft 553 kts 94°
2026-04-26 10:34 23.75656 44.11293 36101 ft 553 kts 95°
2026-04-26 10:34 23.75052 44.19612 36099 ft 553 kts 95°
2026-04-26 10:35 23.74427 44.27943 36098 ft 552 kts 95°
2026-04-26 10:35 23.73792 44.36281 36103 ft 552 kts 95°
2026-04-26 10:36 23.73156 44.44592 36107 ft 552 kts 95°
2026-04-26 10:36 23.72512 44.52972 36114 ft 552 kts 95°
2026-04-26 10:37 23.71867 44.61294 36113 ft 552 kts 95°
2026-04-26 10:37 23.71217 44.69632 36110 ft 552 kts 95°
2026-04-26 10:38 23.70573 44.77921 36109 ft 551 kts 95°
2026-04-26 10:38 23.69917 44.86256 36102 ft 552 kts 95°
2026-04-26 10:39 23.69246 44.94557 36100 ft 551 kts 95°
2026-04-26 10:39 23.68573 45.02829 36093 ft 551 kts 95°
2026-04-26 10:40 23.67904 45.11151 36093 ft 551 kts 95°
2026-04-26 10:40 23.67233 45.19435 36094 ft 551 kts 95°
2026-04-26 10:41 23.66546 45.27733 36091 ft 550 kts 95°
2026-04-26 10:41 23.65848 45.36071 36082 ft 551 kts 95°
2026-04-26 10:42 23.65161 45.44337 36075 ft 550 kts 95°
2026-04-26 10:42 23.64473 45.52617 36068 ft 550 kts 95°
2026-04-26 10:43 23.63779 45.60921 36059 ft 549 kts 95°
2026-04-26 10:43 23.63072 45.69177 36048 ft 549 kts 96°
2026-04-26 10:44 23.62355 45.77456 36037 ft 549 kts 96°
2026-04-26 10:44 23.61641 45.85712 36030 ft 549 kts 95°
2026-04-26 10:45 23.60925 45.94005 36027 ft 548 kts 96°
2026-04-26 10:45 23.60210 46.02226 36027 ft 548 kts 95°
2026-04-26 10:46 23.59489 46.10462 36036 ft 548 kts 96°
2026-04-26 10:46 23.58762 46.18715 36048 ft 548 kts 95°
2026-04-26 10:47 23.58028 46.26986 36061 ft 548 kts 95°
2026-04-26 10:47 23.57293 46.35274 36076 ft 548 kts 95°
2026-04-26 10:48 23.56557 46.43526 36086 ft 548 kts 95°
2026-04-26 10:48 23.55818 46.51762 36103 ft 548 kts 95°
2026-04-26 10:49 23.55058 46.59999 36092 ft 547 kts 95°
2026-04-26 10:49 23.54300 46.68208 36071 ft 547 kts 96°
2026-04-26 10:50 23.53670 46.75067 36055 ft 547 kts 96°
2026-04-26 10:50 23.52785 46.84648 36038 ft 547 kts 96°
2026-04-26 10:51 23.51636 46.96994 36025 ft 547 kts 96°
2026-04-26 10:52 23.50864 47.05232 36017 ft 547 kts 95°
2026-04-26 10:52 23.50093 47.13410 36017 ft 546 kts 95°
2026-04-26 10:53 23.49314 47.21634 36014 ft 546 kts 96°
2026-04-26 10:53 23.48530 47.29866 36011 ft 546 kts 95°
2026-04-26 10:54 23.47352 47.42182 36009 ft 545 kts 95°
2026-04-26 10:54 23.46567 47.50332 36007 ft 545 kts 95°
2026-04-26 10:55 23.45763 47.58522 36000 ft 545 kts 95°
2026-04-26 10:55 23.45085 47.65377 35993 ft 545 kts 96°
2026-04-26 10:56 23.44148 47.74912 35985 ft 545 kts 96°
2026-04-26 10:56 23.43343 47.83085 35983 ft 545 kts 96°
2026-04-26 10:57 23.42531 47.91264 35978 ft 544 kts 96°
2026-04-26 10:57 23.41715 47.99441 35972 ft 544 kts 95°
2026-04-26 10:58 23.40897 48.07605 35967 ft 544 kts 96°
2026-04-26 10:58 23.40077 48.15744 35965 ft 544 kts 96°
2026-04-26 10:59 23.39253 48.23914 35964 ft 544 kts 96°
2026-04-26 10:59 23.38417 48.32116 35962 ft 544 kts 95°
2026-04-26 11:00 23.37930 48.40264 35960 ft 543 kts 91°
2026-04-26 11:00 23.37611 48.48472 35957 ft 543 kts 91°
2026-04-26 11:01 23.37291 48.56662 35954 ft 543 kts 91°
2026-04-26 11:01 23.36969 48.64591 35951 ft 543 kts 91°
2026-04-26 11:02 23.36629 48.72785 35949 ft 542 kts 91°
2026-04-26 11:02 23.36284 48.80964 35947 ft 542 kts 91°
2026-04-26 11:03 23.35940 48.89114 35930 ft 542 kts 91°
2026-04-26 11:03 23.35592 48.97270 35918 ft 542 kts 91°
2026-04-26 11:04 23.35190 49.05431 35904 ft 542 kts 94°
2026-04-26 11:04 23.34205 49.13580 35901 ft 543 kts 98°
2026-04-26 11:05 23.33022 49.21661 35896 ft 543 kts 98°
2026-04-26 11:05 23.31834 49.29775 35894 ft 542 kts 98°
2026-04-26 11:06 23.30858 49.36496 35893 ft 542 kts 98°
2026-04-26 11:06 23.29490 49.45932 35900 ft 542 kts 98°
2026-04-26 11:07 23.28311 49.54025 35895 ft 542 kts 98°
2026-04-26 11:07 23.27132 49.62104 35894 ft 542 kts 98°
2026-04-26 11:08 23.25947 49.70192 35897 ft 542 kts 98°
2026-04-26 11:08 23.24766 49.78251 35893 ft 541 kts 98°
2026-04-26 11:09 23.23579 49.86305 35894 ft 541 kts 98°
2026-04-26 11:09 23.22383 49.94380 35893 ft 541 kts 98°
2026-04-26 11:10 23.21186 50.02416 35889 ft 541 kts 98°
2026-04-26 11:10 23.19980 50.10501 35887 ft 542 kts 98°
2026-04-26 11:11 23.18775 50.18544 35886 ft 542 kts 98°
2026-04-26 11:11 23.17557 50.26641 35884 ft 542 kts 98°
2026-04-26 11:12 23.16343 50.34690 35885 ft 541 kts 98°
2026-04-26 11:12 23.15124 50.42744 35889 ft 541 kts 98°
2026-04-26 11:13 23.13904 50.50771 35889 ft 541 kts 98°
2026-04-26 11:13 23.12679 50.58801 35886 ft 541 kts 98°
2026-04-26 11:14 23.11451 50.66832 35879 ft 540 kts 98°
2026-04-26 11:14 23.10423 50.73557 35878 ft 541 kts 98°
2026-04-26 11:15 23.08984 50.82912 35867 ft 540 kts 98°
2026-04-26 11:15 23.07748 50.90913 35855 ft 540 kts 98°
2026-04-26 11:16 23.06506 50.98924 35854 ft 540 kts 98°
2026-04-26 11:16 23.05254 51.06965 35860 ft 541 kts 98°
2026-04-26 11:17 23.03995 51.15020 35863 ft 540 kts 98°
2026-04-26 11:17 23.02742 51.23016 35859 ft 540 kts 98°
2026-04-26 11:18 23.01482 51.31031 35861 ft 540 kts 98°
2026-04-26 11:18 23.00216 51.39048 35858 ft 539 kts 98°
2026-04-26 11:19 22.98950 51.47048 35857 ft 539 kts 98°
2026-04-26 11:19 22.97675 51.55067 35856 ft 540 kts 97°
2026-04-26 11:20 22.96617 51.61710 35854 ft 539 kts 97°
2026-04-26 11:20 22.95130 51.71030 35851 ft 539 kts 98°
2026-04-26 11:21 22.93846 51.79065 35849 ft 539 kts 98°
2026-04-26 11:21 22.92566 51.87011 35849 ft 539 kts 98°
2026-04-26 11:22 22.91273 51.95021 35853 ft 540 kts 98°
2026-04-26 11:22 22.89977 52.03019 35856 ft 540 kts 98°
2026-04-26 11:23 22.88651 52.11008 35856 ft 539 kts 98°
2026-04-26 11:23 22.87324 52.19028 35859 ft 539 kts 98°
2026-04-26 11:24 22.86021 52.26995 35863 ft 539 kts 97°
2026-04-26 11:24 22.84728 52.34922 35865 ft 539 kts 97°
2026-04-26 11:25 22.83417 52.42926 35863 ft 538 kts 97°
2026-04-26 11:25 22.82406 52.50928 35863 ft 535 kts 91°
2026-04-26 11:26 22.82095 52.58949 35863 ft 534 kts 88°
2026-04-26 11:26 22.81916 52.66938 35861 ft 534 kts 88°
2026-04-26 11:27 22.81722 52.74975 35863 ft 534 kts 88°
2026-04-26 11:27 22.81511 52.83019 35862 ft 534 kts 89°
2026-04-26 11:28 22.81295 52.91032 35859 ft 533 kts 88°
2026-04-26 11:28 22.81074 52.99035 35852 ft 533 kts 88°
2026-04-26 11:29 22.80848 53.07057 35850 ft 533 kts 88°
2026-04-26 11:29 22.80618 53.15074 35849 ft 533 kts 88°
2026-04-26 11:30 22.80426 53.21736 35844 ft 533 kts 88°
2026-04-26 11:30 22.80150 53.31082 35841 ft 532 kts 88°
2026-04-26 11:31 22.79910 53.39079 35843 ft 532 kts 88°
2026-04-26 11:31 22.79668 53.47024 35844 ft 532 kts 88°
2026-04-26 11:32 22.79420 53.55020 35841 ft 532 kts 88°
2026-04-26 11:32 22.79169 53.63009 35842 ft 532 kts 88°
2026-04-26 11:33 22.78915 53.71032 35839 ft 532 kts 89°
2026-04-26 11:33 22.78659 53.79015 35840 ft 532 kts 89°
2026-04-26 11:34 22.78403 53.86976 35843 ft 531 kts 89°
2026-04-26 11:34 22.78255 53.94946 35848 ft 529 kts 85°
2026-04-26 11:35 22.78814 54.02865 35854 ft 525 kts 78°
2026-04-26 11:35 22.79887 54.09279 35853 ft 521 kts 73°
2026-04-26 11:36 22.81740 54.18247 35852 ft 521 kts 72°
2026-04-26 11:36 22.83305 54.25846 35850 ft 521 kts 73°
2026-04-26 11:37 22.84872 54.33542 35850 ft 521 kts 73°
2026-04-26 11:37 22.86418 54.41201 35851 ft 521 kts 73°
2026-04-26 11:38 22.87956 54.48834 35848 ft 521 kts 73°
2026-04-26 11:38 22.89492 54.56482 35846 ft 520 kts 73°
2026-04-26 11:39 22.91028 54.64140 35837 ft 520 kts 73°
2026-04-26 11:39 22.92550 54.71779 35829 ft 521 kts 73°
2026-04-26 11:40 22.94072 54.79444 35821 ft 520 kts 73°
2026-04-26 11:40 22.95588 54.87077 35818 ft 520 kts 73°
2026-04-26 11:42 23.02436 55.17305 35824 ft 510 kts 55°
2026-04-26 11:43 23.06821 55.23194 35823 ft 495 kts 34°
2026-04-26 11:43 23.12627 55.27002 35822 ft 480 kts 15°
2026-04-26 11:44 23.18970 55.29004 35832 ft 477 kts
2026-04-26 11:44 23.25434 55.30851 35830 ft 478 kts
2026-04-26 11:45 23.31882 55.32724 35837 ft 478 kts
2026-04-26 11:45 23.36771 55.34160 35836 ft 479 kts
2026-04-26 11:46 23.43187 55.36050 35840 ft 478 kts
2026-04-26 11:46 23.49640 55.37955 35845 ft 478 kts
2026-04-26 11:47 23.56052 55.39851 35849 ft 479 kts
2026-04-26 11:47 23.62535 55.41771 35855 ft 479 kts
2026-04-26 11:48 23.68962 55.43676 35856 ft 480 kts
2026-04-26 11:48 23.75427 55.45592 35425 ft 482 kts
2026-04-26 11:49 23.78664 55.46552 34692 ft 481 kts
2026-04-26 11:49 23.81895 55.47510 33957 ft 481 kts
2026-04-26 11:49 23.85144 55.48476 33187 ft 482 kts
2026-04-26 11:49 23.88356 55.49429 32427 ft 482 kts
2026-04-26 11:50 23.91649 55.50402 31583 ft 484 kts 10°
2026-04-26 11:50 23.94906 55.51365 30656 ft 490 kts 10°
2026-04-26 11:50 23.98141 55.52511 29670 ft 500 kts 18°
2026-04-26 11:50 24.01297 55.54186 28682 ft 511 kts 27°
2026-04-26 11:51 24.04248 55.56385 28019 ft 511 kts 36°
2026-04-26 11:51 24.06937 55.58917 27354 ft 511 kts 39°
2026-04-26 11:51 24.09567 55.61539 26669 ft 509 kts 40°
2026-04-26 11:51 24.12137 55.64127 25933 ft 509 kts 40°
2026-04-26 11:52 24.14766 55.66761 25234 ft 506 kts 41°
2026-04-26 11:52 24.16494 55.68494 24775 ft 504 kts 41°
2026-04-26 11:52 24.19902 55.71907 23947 ft 498 kts 40°
2026-04-26 11:52 24.22453 55.74451 23360 ft 492 kts 40°
2026-04-26 11:53 24.24978 55.76963 22812 ft 486 kts 40°
2026-04-26 11:53 24.27478 55.79449 22263 ft 481 kts 41°
2026-04-26 11:53 24.29938 55.81894 21735 ft 475 kts 41°
2026-04-26 11:54 24.34771 55.86701 20733 ft 462 kts 41°
2026-04-26 11:54 24.37131 55.89053 20249 ft 456 kts 41°
2026-04-26 11:54 24.39468 55.91382 19773 ft 450 kts 41°
2026-04-26 11:54 24.41760 55.93669 19297 ft 444 kts 41°
2026-04-26 11:55 24.44037 55.95939 18812 ft 438 kts 41°
2026-04-26 11:55 24.46272 55.98167 18336 ft 432 kts 41°
2026-04-26 11:55 24.48485 56.00375 17869 ft 426 kts 41°
2026-04-26 11:55 24.50659 56.02545 17403 ft 420 kts 41°
2026-04-26 11:56 24.52798 56.04682 16944 ft 415 kts 41°
2026-04-26 11:56 24.54919 56.06805 16485 ft 410 kts 41°
2026-04-26 11:56 24.57025 56.08921 16018 ft 406 kts 41°
2026-04-26 11:56 24.59230 56.10863 15542 ft 400 kts 31°
2026-04-26 11:57 24.61688 56.12242 15083 ft 394 kts 19°
2026-04-26 11:57 24.64303 56.13041 14633 ft 387 kts
2026-04-26 11:57 24.66951 56.13534 14181 ft 383 kts
2026-04-26 11:57 24.69554 56.13973 13731 ft 379 kts
2026-04-26 11:58 24.72170 56.14423 13273 ft 375 kts
2026-04-26 11:58 24.74736 56.14882 12993 ft 366 kts
2026-04-26 11:58 24.77218 56.15299 12828 ft 354 kts
2026-04-26 11:58 24.79613 56.15221 12665 ft 340 kts 348°
2026-04-26 11:59 24.81871 56.14566 12521 ft 327 kts 336°
2026-04-26 11:59 24.83908 56.13600 12404 ft 315 kts 333°
2026-04-26 11:59 24.85885 56.12597 12296 ft 304 kts 333°
2026-04-26 11:59 24.87775 56.11637 12208 ft 293 kts 333°
2026-04-26 12:00 24.89593 56.10724 12133 ft 281 kts 333°
2026-04-26 12:00 24.91338 56.09855 12065 ft 270 kts 333°
2026-04-26 12:00 24.93030 56.09016 12007 ft 259 kts 333°
2026-04-26 12:00 24.94585 56.08139 11874 ft 248 kts 318°
2026-04-26 12:01 24.95508 56.06615 11697 ft 235 kts 286°
2026-04-26 12:01 24.95981 56.04900 11516 ft 230 kts 287°
2026-04-26 12:01 24.96490 56.03254 11314 ft 227 kts 288°
2026-04-26 12:01 24.97020 56.01631 11100 ft 224 kts 289°
2026-04-26 12:02 24.97558 56.00030 10880 ft 220 kts 289°
2026-04-26 12:02 24.97918 55.98977 10741 ft 218 kts 289°
2026-04-26 12:02 24.98626 55.96918 10264 ft 222 kts 289°
2026-04-26 12:02 24.99187 55.95302 9715 ft 231 kts 289°
2026-04-26 12:03 24.99761 55.93644 9076 ft 239 kts 289°
2026-04-26 12:03 25.00364 55.91905 8402 ft 248 kts 290°
2026-04-26 12:03 25.00984 55.90123 7760 ft 255 kts 290°
2026-04-26 12:03 25.01631 55.88270 7083 ft 261 kts 291°
2026-04-26 12:04 25.02280 55.86410 6418 ft 265 kts 291°
2026-04-26 12:04 25.02945 55.84503 5837 ft 263 kts 291°
2026-04-26 12:04 25.03593 55.82647 5446 ft 256 kts 291°
2026-04-26 12:04 25.04221 55.80848 5089 ft 249 kts 291°
2026-04-26 12:05 25.04829 55.79104 4723 ft 241 kts 291°
2026-04-26 12:05 25.05421 55.77405 4337 ft 233 kts 291°
2026-04-26 12:05 25.05991 55.75766 4010 ft 225 kts 291°
2026-04-26 12:05 25.06542 55.74180 3658 ft 219 kts 291°
2026-04-26 12:06 25.07083 55.72621 3302 ft 215 kts 292°
2026-04-26 12:06 25.07599 55.71132 3165 ft 198 kts 292°
2026-04-26 12:06 25.08066 55.69781 3116 ft 179 kts 292°
2026-04-26 12:06 25.08491 55.68551 3061 ft 162 kts 292°
2026-04-26 12:07 25.08884 55.67421 3037 ft 156 kts 292°
2026-04-26 12:07 25.09232 55.66289 2994 ft 155 kts 288°
2026-04-26 12:07 25.09581 55.65149 2950 ft 155 kts 294°
2026-04-26 12:07 25.10023 55.64077 2903 ft 155 kts 298°
2026-04-26 12:08 25.10559 55.63038 2802 ft 156 kts 302°
2026-04-26 12:08 25.11134 55.62017 2622 ft 154 kts 302°
2026-04-26 12:08 25.11694 55.61023 2453 ft 154 kts 302°
2026-04-26 12:08 25.12260 55.60009 2331 ft 152 kts 302°
2026-04-26 12:09 25.12820 55.58997 2253 ft 154 kts 302°
2026-04-26 12:09 25.13372 55.58000 2132 ft 153 kts 302°
2026-04-26 12:09 25.13930 55.56987 1981 ft 153 kts 302°
2026-04-26 12:09 25.14474 55.55993 1834 ft 151 kts 302°
2026-04-26 12:10 25.15019 55.55000 1814 ft 152 kts 302°
2026-04-26 12:10 25.15568 55.54002 1796 ft 152 kts 302°
2026-04-26 12:10 25.16118 55.53000 1798 ft 152 kts 302°
2026-04-26 12:10 25.16660 55.52018 1782 ft 142 kts 302°
2026-04-26 12:11 25.17169 55.51092 1785 ft 139 kts 302°
2026-04-26 12:11 25.17667 55.50189 1790 ft 138 kts 302°
2026-04-26 12:11 25.18172 55.49276 1790 ft 138 kts 302°
2026-04-26 12:11 25.18652 55.48411 1782 ft 138 kts 301°
2026-04-26 12:12 25.19156 55.47502 1643 ft 138 kts 302°
2026-04-26 12:12 25.19656 55.46596 1471 ft 138 kts 302°
2026-04-26 12:12 25.20152 55.45701 1301 ft 137 kts 302°
2026-04-26 12:12 25.20484 55.45100 1189 ft 137 kts 303°
2026-04-26 12:13 25.21152 55.43905 966 ft 136 kts 301°
2026-04-26 12:13 25.21645 55.43012 797 ft 136 kts 300°
2026-04-26 12:13 25.22134 55.42121 627 ft 136 kts 301°
2026-04-26 12:13 25.22637 55.41225 456 ft 135 kts 301°
2026-04-26 12:14 25.23116 55.40332 267 ft 134 kts 300°
2026-04-26 12:14 25.23625 55.39484 122 ft 132 kts 299°
2026-04-26 12:14 25.24062 55.38641 76 ft 108 kts 303°
2026-04-26 12:14 25.24353 55.38109 75 ft 56 kts 305°
2026-04-26 12:15 25.24496 55.37875 75 ft 30 kts 300°
2026-04-26 12:15 25.24586 55.37678 75 ft 20 kts 286°
2026-04-26 12:15 25.24611 55.37527 75 ft 20 kts 277°
2026-04-26 12:15 25.24615 55.37465 75 ft 7 kts 274°
2026-04-26 12:16 25.24616 55.37461 75 ft 0 kts 274°
2026-04-26 12:16 25.24616 55.37456 75 ft 1 kts 274°
2026-04-26 12:17 25.24616 55.37450 75 ft 0 kts 274°
2026-04-26 12:17 25.24616 55.37445 75 ft 1 kts 272°
2026-04-26 12:17 25.24615 55.37427 75 ft 3 kts 262°
2026-04-26 12:17 25.24604 55.37404 75 ft 3 kts 224°
2026-04-26 12:18 25.24573 55.37397 75 ft 5 kts 171°
2026-04-26 12:18 25.24534 55.37424 75 ft 7 kts 141°
2026-04-26 12:18 25.24481 55.37443 75 ft 8 kts 186°
2026-04-26 12:18 25.24425 55.37417 75 ft 7 kts 210°
2026-04-26 12:19 25.24377 55.37385 75 ft 4 kts 212°
2026-04-26 12:19 25.24357 55.37371 75 ft 3 kts 212°
2026-04-26 12:19 25.24346 55.37365 75 ft 0 kts 211°